| time (UTC) | temp F | wind direction | speed MPH | gust MPH | rain 1hr in | rain 24hr in | rain mn in | humidity % | barometer mb |
| 20260506024030 | 79 | 158 | 2.0 | 6.0 | 0.00 | 0.00 | 0.00 | 78 | 1006.2 |
| 20260506023016 | 79 | 149 | 3.0 | 7.0 | 0.00 | 0.00 | 0.00 | 76 | 1005.9 |
| 20260506022024 | 80 | 164 | 2.0 | 4.0 | 0.00 | 0.00 | 0.00 | 76 | 1005.9 |
| 20260506021035 | 80 | 158 | 1.0 | 4.0 | 0.00 | 0.00 | 0.00 | 76 | 1005.7 |
| 20260506020018 | 80 | 146 | 3.0 | 6.0 | 0.00 | 0.00 | 0.00 | 75 | 1005.4 |
| 20260506015025 | 80 | 144 | 1.0 | 6.0 | 0.00 | 0.00 | 0.00 | 74 | 1005.4 |
| 20260506014034 | 80 | 146 | 2.0 | 5.0 | 0.00 | 0.00 | 0.00 | 74 | 1005.3 |
| 20260506013021 | 81 | 156 | 2.0 | 5.0 | 0.00 | 0.00 | 0.00 | 73 | 1005.3 |
| 20260506012032 | 81 | 163 | 2.0 | 6.0 | 0.00 | 0.00 | 0.00 | 73 | 1005.3 |
| 20260506011020 | 81 | 162 | 3.0 | 6.0 | 0.00 | 0.00 | 0.00 | 72 | 1005.5 |
| 20260506010027 | 82 | 126 | 2.0 | 4.0 | 0.00 | 0.00 | 0.00 | 71 | 1005.1 |
| 20260506005035 | 82 | 138 | 2.0 | 4.0 | 0.00 | 0.00 | 0.00 | 70 | 1005.5 |
| 20260506004023 | 83 | 151 | 1.0 | 4.0 | 0.00 | 0.00 | 0.00 | 70 | 1005.3 |
| 20260506003057 | 83 | 158 | 2.0 | 5.0 | 0.00 | 0.00 | 0.00 | 69 | 1005.3 |
| 20260506002024 | 83 | 162 | 2.0 | 4.0 | 0.00 | 0.00 | 0.00 | 68 | 1005.4 |
| 20260506001028 | 83 | 156 | 1.0 | 4.0 | 0.00 | 0.00 | 0.00 | 67 | 1005.1 |
| 20260506000036 | 83 | 144 | 1.0 | 5.0 | 0.00 | 0.00 | 0.00 | 67 | 1005.1 |
| 20260505235024 | 83 | 169 | 2.0 | 9.0 | 0.00 | 0.00 | 0.00 | 66 | 1005.1 |
| 20260505234035 | 83 | 154 | 2.0 | 7.0 | 0.00 | 0.00 | 0.00 | 66 | 1005.0 |
| 20260505233042 | 83 | 171 | 3.0 | 7.0 | 0.00 | 0.00 | 0.00 | 66 | 1004.8 |
| 20260505232029 | 84 | 173 | 2.0 | 8.0 | 0.00 | 0.00 | 0.00 | 66 | 1004.8 |
| 20260505231037 | 84 | 171 | 2.0 | 7.0 | 0.00 | 0.00 | 0.00 | 67 | 1005.0 |
| 20260505230024 | 84 | 158 | 3.0 | 6.0 | 0.00 | 0.00 | 0.00 | 66 | 1004.8 |
| 20260505225034 | 84 | 170 | 2.0 | 6.0 | 0.00 | 0.00 | 0.00 | 66 | 1004.8 |
| 20260505224044 | 84 | 165 | 3.0 | 10.0 | 0.00 | 0.00 | 0.00 | 65 | 1004.6 |
| 20260505223033 | 85 | 179 | 3.0 | 7.0 | 0.00 | 0.00 | 0.00 | 64 | 1004.7 |
| 20260505222021 | 85 | 180 | 2.0 | 6.0 | 0.00 | 0.00 | 0.00 | 63 | 1004.6 |
| 20260505221030 | 85 | 165 | 1.0 | 6.0 | 0.00 | 0.00 | 0.00 | 64 | 1004.9 |
| 20260505220018 | 84 | 179 | 3.0 | 9.0 | 0.00 | 0.00 | 0.00 | 63 | 1004.9 |
| 20260505215025 | 84 | 167 | 3.0 | 7.0 | 0.00 | 0.00 | 0.00 | 64 | 1005.2 |
| 20260505214035 | 84 | 187 | 3.0 | 9.0 | 0.00 | 0.00 | 0.00 | 64 | 1005.2 |
| 20260505213025 | 84 | 146 | 4.0 | 13.0 | 0.00 | 0.00 | 0.00 | 65 | 1005.2 |
| 20260505212035 | 84 | 180 | 4.0 | 9.0 | 0.00 | 0.00 | 0.00 | 64 | 1005.5 |
| 20260505211024 | 85 | 172 | 4.0 | 8.0 | 0.00 | 0.00 | 0.00 | 64 | 1005.5 |
| 20260505210033 | 84 | 181 | 3.0 | 9.0 | 0.00 | 0.00 | 0.00 | 65 | 1005.8 |
| 20260505205021 | 84 | 178 | 3.0 | 9.0 | 0.00 | 0.00 | 0.00 | 66 | 1005.7 |
| 20260505204031 | 83 | 181 | 4.0 | 9.0 | 0.00 | 0.00 | 0.00 | 67 | 1005.8 |
| 20260505203041 | 83 | 167 | 4.0 | 11.0 | 0.00 | 0.00 | 0.00 | 66 | 1005.9 |
| 20260505202029 | 83 | 182 | 4.0 | 12.0 | 0.00 | 0.00 | 0.00 | 68 | 1006.1 |
| 20260505201018 | 83 | 192 | 4.0 | 9.0 | 0.00 | 0.00 | 0.00 | 67 | 1006.3 |
| 20260505200530 | 83 | 178 | 4.0 | 9.0 | 0.00 | 0.00 | 0.00 | 68 | 1006.6 |
| 20260505195539 | 83 | 176 | 3.0 | 8.0 | 0.00 | 0.00 | 0.00 | 69 | 1006.5 |
| 20260505194526 | 82 | 159 | 1.0 | 5.0 | 0.00 | 0.00 | 0.00 | 71 | 1006.8 |
| 20260505193537 | 81 | 157 | 3.0 | 10.0 | 0.00 | 0.00 | 0.00 | 71 | 1006.8 |
| 20260505192525 | 81 | 177 | 3.0 | 10.0 | 0.00 | 0.00 | 0.00 | 70 | 1006.8 |
| 20260505191534 | 82 | 171 | 3.0 | 7.0 | 0.00 | 0.00 | 0.00 | 71 | 1006.8 |
| 20260505190523 | 81 | 170 | 2.0 | 7.0 | 0.00 | 0.00 | 0.00 | 72 | 1007.0 |
| 20260505185533 | 81 | 171 | 3.0 | 5.0 | 0.00 | 0.00 | 0.00 | 73 | 1006.8 |
| 20260505184523 | 80 | 157 | 2.0 | 6.0 | 0.00 | 0.00 | 0.00 | 73 | 1007.2 |
| 20260505183533 | 79 | 156 | 3.0 | 7.0 | 0.00 | 0.00 | 0.00 | 75 | 1007.3 |
| 20260505182521 | 79 | 173 | 4.0 | 8.0 | 0.00 | 0.00 | 0.00 | 74 | 1007.5 |
| 20260505181531 | 79 | 167 | 2.0 | 10.0 | 0.00 | 0.00 | 0.00 | 75 | 1007.4 |
| 20260505180520 | 78 | 154 | 2.0 | 6.0 | 0.00 | 0.00 | 0.00 | 76 | 1007.5 |
| 20260505175550 | 77 | 168 | 2.0 | 6.0 | 0.00 | 0.00 | 0.00 | 77 | 1007.7 |
| 20260505174540 | 77 | 176 | 2.0 | 6.0 | 0.00 | 0.00 | 0.00 | 77 | 1007.8 |
| 20260505173528 | 77 | 156 | 2.0 | 7.0 | 0.00 | 0.00 | 0.00 | 79 | 1008.0 |
| 20260505172538 | 76 | 165 | 2.0 | 6.0 | 0.00 | 0.00 | 0.00 | 79 | 1008.0 |
| 20260505171528 | 75 | 171 | 3.0 | 7.0 | 0.00 | 0.00 | 0.00 | 80 | 1007.8 |
| 20260505170517 | 75 | 182 | 2.0 | 8.0 | 0.00 | 0.00 | 0.00 | 81 | 1008.2 |
| 20260505165528 | 74 | 170 | 3.0 | 6.0 | 0.00 | 0.00 | 0.00 | 82 | 1008.1 |
| 20260505164517 | 74 | 162 | 2.0 | 6.0 | 0.00 | 0.00 | 0.00 | 83 | 1008.0 |
| 20260505163527 | 74 | 177 | 2.0 | 10.0 | 0.00 | 0.00 | 0.00 | 83 | 1007.8 |
| 20260505162516 | 73 | 162 | 2.0 | 7.0 | 0.00 | 0.00 | 0.00 | 84 | 1008.1 |
| 20260505161526 | 73 | 162 | 2.0 | 7.0 | 0.00 | 0.00 | 0.00 | 85 | 1008.1 |
| 20260505160536 | 73 | 150 | 2.0 | 5.0 | 0.00 | 0.00 | 0.00 | 85 | 1008.2 |
| 20260505152536 | 72 | 142 | 2.0 | 6.0 | 0.00 | 0.00 | 0.00 | 86 | 1008.1 |
| 20260505151525 | 72 | 137 | 2.0 | 7.0 | 0.00 | 0.00 | 0.00 | 87 | 1008.0 |
| 20260505150535 | 72 | 148 | 2.0 | 5.0 | 0.00 | 0.00 | 0.00 | 86 | 1007.9 |
| 20260505140529 | 71 | 174 | 3.0 | 11.0 | 0.00 | 0.00 | 0.00 | 87 | 1007.5 |
| 20260505124518 | 71 | 157 | 2.0 | 8.0 | 0.00 | 0.00 | 0.00 | 87 | 1006.8 |
| 20260505123549 | 70 | 172 | 3.0 | 9.0 | 0.00 | 0.00 | 0.00 | 87 | 1006.5 |
| 20260505122518 | 70 | 166 | 3.0 | 14.0 | 0.00 | 0.00 | 0.00 | 87 | 1006.5 |
| 20260505121529 | 70 | 174 | 3.0 | 10.0 | 0.00 | 0.00 | 0.00 | 87 | 1006.4 |
| 20260505120520 | 70 | 174 | 3.0 | 9.0 | 0.00 | 0.00 | 0.00 | 87 | 1006.2 |
| 20260505115528 | 70 | 169 | 3.0 | 12.0 | 0.00 | 0.00 | 0.00 | 86 | 1006.2 |
| 20260505114518 | 70 | 173 | 3.0 | 8.0 | 0.00 | 0.00 | 0.00 | 86 | 1006.2 |
| 20260505113528 | 70 | 172 | 2.0 | 9.0 | 0.00 | 0.00 | 0.00 | 86 | 1006.2 |
| 20260505112517 | 70 | 180 | 3.0 | 9.0 | 0.00 | 0.00 | 0.00 | 86 | 1006.2 |
| 20260505111524 | 70 | 172 | 3.0 | 13.0 | 0.00 | 0.00 | 0.00 | 86 | 1006.2 |
| 20260505110551 | 70 | 173 | 3.0 | 10.0 | 0.00 | 0.00 | 0.00 | 86 | 1006.6 |
| 20260505101533 | 71 | 174 | 3.0 | 13.0 | 0.00 | 0.00 | 0.00 | 85 | 1006.6 |
| 20260505100521 | 71 | 177 | 3.0 | 10.0 | 0.00 | 0.00 | 0.00 | 84 | 1006.5 |
| 20260505095531 | 71 | 177 | 3.0 | 9.0 | 0.00 | 0.00 | 0.00 | 84 | 1006.4 |
| 20260505094521 | 71 | 176 | 3.0 | 13.0 | 0.00 | 0.00 | 0.00 | 84 | 1006.4 |
| 20260505093531 | 71 | 168 | 2.0 | 6.0 | 0.00 | 0.00 | 0.00 | 84 | 1006.6 |
| 20260505092521 | 71 | 163 | 3.0 | 8.0 | 0.00 | 0.00 | 0.00 | 84 | 1006.6 |
| 20260505091609 | 71 | 174 | 3.0 | 9.0 | 0.00 | 0.00 | 0.00 | 84 | 1006.5 |
| 20260505090519 | 71 | 177 | 2.0 | 10.0 | 0.00 | 0.00 | 0.00 | 84 | 1006.8 |
| 20260505085530 | 71 | 178 | 3.0 | 10.0 | 0.00 | 0.00 | 0.00 | 84 | 1006.7 |
| 20260505084521 | 71 | 169 | 2.0 | 7.0 | 0.00 | 0.00 | 0.00 | 84 | 1006.7 |
| 20260505083530 | 71 | 173 | 4.0 | 11.0 | 0.00 | 0.00 | 0.00 | 84 | 1006.8 |
| 20260505082539 | 71 | 184 | 5.0 | 13.0 | 0.00 | 0.00 | 0.00 | 84 | 1006.8 |
| 20260505081529 | 71 | 172 | 3.0 | 7.0 | 0.00 | 0.00 | 0.00 | 83 | 1006.9 |
| 20260505080520 | 71 | 173 | 4.0 | 14.0 | 0.00 | 0.00 | 0.00 | 84 | 1007.2 |
| 20260505075530 | 71 | 179 | 4.0 | 10.0 | 0.00 | 0.00 | 0.00 | 83 | 1007.1 |
| 20260505074519 | 71 | 173 | 4.0 | 9.0 | 0.00 | 0.00 | 0.00 | 83 | 1007.5 |
| 20260505073531 | 71 | 175 | 4.0 | 14.0 | 0.00 | 0.00 | 0.00 | 82 | 1007.5 |
| 20260505072622 | 71 | 148 | 2.0 | 8.0 | 0.00 | 0.00 | 0.00 | 82 | 1007.6 |
| 20260505071533 | 71 | 170 | 3.0 | 9.0 | 0.00 | 0.00 | 0.00 | 82 | 1007.6 |
| 20260505070524 | 71 | 167 | 4.0 | 13.0 | 0.00 | 0.00 | 0.00 | 82 | 1007.8 |
| 20260505065533 | 71 | 175 | 4.0 | 13.0 | 0.00 | 0.00 | 0.00 | 82 | 1007.8 |
| 20260505064523 | 71 | 176 | 4.0 | 15.0 | 0.00 | 0.00 | 0.00 | 81 | 1007.9 |
| 20260505063533 | 71 | 180 | 3.0 | 8.0 | 0.00 | 0.00 | 0.00 | 81 | 1008.1 |
| 20260505062524 | 72 | 176 | 4.0 | 9.0 | 0.00 | 0.00 | 0.00 | 81 | 1008.2 |
| 20260505061532 | 72 | 177 | 3.0 | 11.0 | 0.00 | 0.00 | 0.00 | 81 | 1008.4 |
| 20260505060520 | 72 | 182 | 4.0 | 11.0 | 0.00 | 0.00 | 0.00 | 80 | 1008.2 |
| 20260505055529 | 72 | 181 | 3.0 | 7.0 | 0.00 | 0.00 | 0.00 | 80 | 1008.3 |
| 20260505054537 | 72 | 177 | 5.0 | 15.0 | 0.00 | 0.00 | 0.00 | 80 | 1008.2 |
| 20260505053522 | 72 | 179 | 3.0 | 8.0 | 0.00 | 0.00 | 0.00 | 79 | 1008.2 |
| 20260505052532 | 72 | 156 | 3.0 | 14.0 | 0.00 | 0.00 | 0.00 | 79 | 1008.3 |
| 20260505051522 | 72 | 181 | 4.0 | 13.0 | 0.00 | 0.00 | 0.00 | 79 | 1008.2 |
| 20260505050532 | 72 | 167 | 3.0 | 11.0 | 0.00 | 0.00 | 0.00 | 79 | 1008.2 |
| 20260505041519 | 73 | 172 | 5.0 | 12.0 | 0.00 | 0.00 | 0.00 | 77 | 1008.1 |
| 20260505040528 | 74 | 175 | 3.0 | 11.0 | 0.00 | 0.00 | 0.00 | 76 | 1008.3 |
| 20260505035517 | 74 | 179 | 3.0 | 9.0 | 0.00 | 0.00 | 0.00 | 75 | 1008.3 |
| 20260505034547 | 74 | 174 | 3.0 | 7.0 | 0.00 | 0.00 | 0.00 | 75 | 1008.4 |
| 20260505033536 | 75 | 168 | 3.0 | 8.0 | 0.00 | 0.00 | 0.00 | 74 | 1008.3 |
| 20260505032524 | 75 | 177 | 3.0 | 10.0 | 0.00 | 0.00 | 0.00 | 74 | 1008.3 |
| 20260505031535 | 75 | 164 | 5.0 | 16.0 | 0.00 | 0.00 | 0.00 | 73 | 1008.2 |
| 20260505030526 | 75 | 163 | 2.0 | 8.0 | 0.00 | 0.00 | 0.00 | 72 | 1008.2 |
| 20260505025535 | 76 | 155 | 3.0 | 9.0 | 0.00 | 0.00 | 0.00 | 72 | 1008.3 |